NOAA 16 DEB

Satellite information

Favourite Embed

Satellite Type and Status

DEBRISIN ORBIT

Key statistics

Satellite NOAA 16 DEB at a glance.

Uptime

8998

Days in orbit

Revolutions

≈ 14.2

Per day

Orbit

SSO

Sun Synchronous Orbit

Inclination

98.7

Latest

Satellite identification and parameters

Extended collection of information and parameters for NOAA 16 DEB.

Object identification

Identified? True

Debris? True

Object name: NOAA 16 DEB

International designator: 2000-055MA

Object number (NORAD): 41502

Object ID (CCSDS): 41502

Country: UNITED STATES OF AMERICA (US)

Current information (Y/N): Y

RCS size: SMALL

Orbital parameters

Period: 101.303 minutes

Inclination: 98.673 deg

SMA: 7198.477 km

Apoapsis: 828.147 km

Periapsis: 812.538 km

RAAN: 182.5005 deg

Eccentricy: 0.0010842

Argument of periapsis: 196.1082 deg

Mean anomaly: 163.9752 deg

Mean motion: 14.21483459 rev/day

Mean motion (dot): 0.00003166 rev/day2

B* drag term: 0.0014659 1/REarth

Two-line elements (TLE)

Creation date: May 10, 2025, 5:27 p.m.

Reference frame: TEME

Reference center: EARTH

Epoch: May 9, 2025, 11:04 p.m. UTC

TLE line 0: 0 NOAA 16 DEB

TLE line 1: 1 41502U 00055MA 25129.96113122 .00003166 00000-0 14659-2 0 9999

TLE line 2: 2 41502 98.6730 182.5005 0010842 196.1082 163.9752 14.21483459473996

Live tracking on map

Real-time ground track for satellite NOAA 16 DEB.

In-orbit conjunctions

A list of the most updated potential collisions computed for object NOAA 16 DEB.

Target Orbit TCA Probability of collision Miss distance Type
SL-3 DEB LEO 2024-11-16 18:44:07 0.000170821 111.0 (m) DEBRIS
COSMOS 886 DEB MEO 2024-11-11 21:15:59 0.0002425867 175.0 (m) DEBRIS

Associated space launch

The NOAA K, L and M POES satellites begin the fifth generation of improved environmental monitoring in support of NOAA missions. The instrument payload has significant improvements and additions/deletions. The instrument changes have effected the spacecraft subsystems and data formats.

NOAA 16 DEB was lifted into orbit during the mission ‘Titan II SLV | NOAA 16’, on board a Titan II SLV space rocket.

The launch took place on Sept. 21, 2000, 10:22 a.m. from Space Launch Complex 4W.

For more information about the launch, click the button.

Launch to space Titan II SLV | NOAA 16
Titan II SLV | NOAA 16

Agency: N/A

Status: Launch Successful

Launch date: Sept. 21, 2000, 10:22 a.m. UTC

Rocket: Titan II SLV

Launch pad: Space Launch Complex 4W

Location: Vandenberg SFB, CA, USA

...

Latest news about this satellite

There are no fresh news available about this satellite. Check back as we update our databases every day.


Newsletter sign-up

Weekly statistics, charts and insights to help you stay on top of the space industry.